Find Starlink 32036

NORAD ID: 60141 Int'l Des: 2024-120 Owner: SPXS Country: US Constellation: starlink operational
LEOCIRCULAR

Current View

Loading 3D Globe...

About Starlink 32036

Starlink 32036 (NORAD 60141) is a starlink constellation satellite (v2 mini) launched Jun 27, 2024 by SPXS of US. It operates in LEO, CIRCULAR orbit with a mass of 730.00 kg.

About Starlink 32036

Description loading...

Upcoming Passes

Passes for default location (London). Set your location on the main map for personalized predictions.

Altitude History

Loading altitude history...

Two-Line Element Set

1 60141U 24120G 26171.38223034 -.00000395 00000-0 -57416-6 0 9991
2 60141 53.1592 202.5924 0000924 75.1538 284.9567 15.34385110112182
Epoch: Jun 20, 2026 • Age: 31 hours

Current Status

Altitude 469.3 km
Velocity 7.63 km/s
Sub-Earth Point -21.78°S, 112.54°W
Launch Date Jun 27, 2024
Age 1.9 years
Type internet

Technical Details

Classification Payload
Mass 730.00 kg
Dry Mass 700.00 kg
Total Mass 730.00 kg
Length 0.30 m
Diameter 4.10 m
Span 29.00 m
Shape Box + pan
Manufacturer SPXS
Bus Type Starlink V2M
Phase Status In Orbit
Owner/State SPXS/US

Most Searched